Date String (YYYY-MM-DD hh:mm:ss) UTC,Instrument flags,absolute air pressure of the measurement (hPa),sample flow rate (lpm),inlet stack bypass flow (lpm),air temperature of the measurement (°C),ambient temperature measured by the external sensor (°C),aerosol sample conditioner tube jacket temperature (°C),OPC LED temperature (°C),internal box temperature (°C),relative humidity of the measurement (%),span deviation,mass concentration of particles derived from Lorenz-Mie calculation of OPC scattering (μg/m³),mass concentration of particles derived from Lorenz-Mie calculation of OPC scattering (μg/m³),mass concentration of particles derived from Lorenz-Mie calculation of OPC scattering (μg/m³)
DateTimeUTC,F1_M11,P_M11,Q1_M11,Q2_M11,T1_M11,T2_M11,T3_M11,T4_M11,T5_M11,U1_M11,ZSPAN_M11,X0_M11,X2_M11,X1_M11
2023-09-08 19:00:00,SystemResetWarning,0835.2,5.01,000.00,027.7,025.6,000.0,036.0,029.3,22.6,0001.6,0017.43,0005.14,0004.03
2023-09-08 19:01:00,SystemResetWarning,0835.3,5.01,000.00,027.7,026.0,000.0,036.0,029.3,22.8,0001.5,0017.76,0005.19,0004.05
2023-09-08 19:02:00,SystemResetWarning,0835.3,5.00,000.00,027.8,026.3,000.0,036.0,029.4,22.5,0001.5,0017.57,0005.17,0004.07
2023-09-08 19:03:00,SystemResetWarning,0835.2,5.00,000.00,027.8,026.6,000.0,036.0,029.5,22.2,0001.8,0016.52,0005.12,0004.08
2023-09-08 19:04:00,SystemResetWarning,0835.3,4.98,000.00,027.9,026.1,000.0,036.0,029.5,22.0,0001.4,0018.73,0005.13,0004.09
2023-09-08 19:05:00,SystemResetWarning,0835.2,5.01,000.00,027.8,024.6,000.0,036.0,029.1,21.9,0001.4,0019.02,0005.18,0004.12
2023-09-08 19:06:00,SystemResetWarning,0835.3,5.01,000.00,027.7,024.2,000.0,035.9,029.1,22.3,0001.6,0018.67,0005.24,0004.17
2023-09-08 19:07:00,SystemResetWarning,0835.2,5.00,000.00,027.7,024.6,000.0,035.9,029.1,22.3,0001.3,0018.76,0005.26,0004.20
2023-09-08 19:08:00,SystemResetWarning,0835.2,4.99,000.00,027.6,024.9,000.0,035.9,029.1,22.4,0001.2,0019.86,0005.35,0004.24
2023-09-08 19:09:00,SystemResetWarning,0835.1,4.99,000.00,027.6,025.3,000.0,035.9,029.2,22.2,0001.1,0019.92,0005.45,0004.26
2023-09-08 19:10:00,SystemResetWarning,0835.1,5.00,000.00,027.7,025.7,000.0,035.9,029.3,22.3,0001.2,0019.94,0005.43,0004.27
2023-09-08 19:11:00,SystemResetWarning,0835.1,5.01,000.00,027.7,026.1,000.0,036.0,029.4,22.5,0001.4,0019.26,0005.40,0004.25
2023-09-08 19:12:00,SystemResetWarning,0835.1,5.01,000.00,027.7,026.4,000.0,036.0,029.4,22.6,0001.5,0018.64,0005.40,0004.25
2023-09-08 19:13:00,SystemResetWarning,0835.1,5.00,000.00,027.8,026.6,000.0,036.0,029.5,22.1,0001.6,0019.83,0005.40,0004.25
2023-09-08 19:14:00,SystemResetWarning,0835.1,5.00,000.00,027.8,026.3,000.0,036.0,029.5,22.0,0001.8,0020.70,0005.42,0004.25
2023-09-08 19:15:00,SystemResetWarning,0835.1,4.99,000.00,027.8,024.9,000.0,035.9,029.2,21.9,0001.9,0020.16,0005.50,0004.26
2023-09-08 19:16:00,SystemResetWarning,0835.1,5.01,000.00,027.7,024.3,000.0,035.9,029.2,21.6,0002.3,0019.56,0005.50,0004.28
2023-09-08 19:17:00,SystemResetWarning,0835.1,5.01,000.00,027.7,024.6,000.0,035.8,029.2,22.2,0002.2,0019.85,0005.54,0004.30
2023-09-08 19:18:00,SystemResetWarning,0835.1,4.99,000.00,027.7,024.9,000.0,035.9,029.1,22.2,0002.2,0019.76,0005.55,0004.30
2023-09-08 19:19:00,SystemResetWarning,0835.1,5.01,000.00,027.7,025.4,000.0,035.9,029.2,22.1,0002.1,0019.59,0005.59,0004.31
2023-09-08 19:20:00,SystemResetWarning,0835.0,5.00,000.00,027.7,025.8,000.0,035.9,029.3,22.3,0002.4,0018.37,0005.61,0004.32
2023-09-08 19:21:00,SystemResetWarning,0835.1,5.00,000.00,027.7,026.1,000.0,036.0,029.4,22.4,0002.4,0018.30,0005.60,0004.35
2023-09-08 19:22:00,SystemResetWarning,0835.1,5.00,000.00,027.8,026.5,000.0,036.0,029.5,22.2,0002.5,0018.85,0005.71,0004.40
2023-09-08 19:23:00,SystemResetWarning,0835.1,5.00,000.00,027.8,026.7,000.0,036.0,029.6,21.7,0002.5,0019.56,0005.77,0004.44
2023-09-08 19:24:00,SystemResetWarning,0835.0,4.98,000.00,027.8,025.8,000.0,036.0,029.4,21.7,0002.1,0019.58,0005.82,0004.46
2023-09-08 19:25:00,SystemResetWarning,0835.0,5.00,000.00,027.8,024.5,000.0,035.9,029.1,21.7,0001.8,0018.89,0005.81,0004.46
2023-09-08 19:26:00,SystemResetWarning,0834.9,5.01,000.00,027.7,024.4,000.0,035.8,029.2,21.8,0001.8,0017.52,0005.77,0004.49
2023-09-08 19:27:00,SystemResetWarning,0834.9,5.01,000.00,027.7,024.7,000.0,035.8,029.1,22.3,0001.7,0017.13,0005.75,0004.48
2023-09-08 19:28:00,SystemResetWarning,0835.2,5.00,000.00,027.6,025.1,000.0,035.9,029.1,22.1,0001.7,0016.56,0005.73,0004.48
2023-09-08 19:29:00,SystemResetWarning,0834.9,5.00,000.00,027.7,025.5,000.0,035.9,029.2,22.1,0001.5,0016.03,0005.72,0004.49
2023-09-08 19:30:00,SystemResetWarning,0834.9,5.00,000.00,027.7,025.9,000.0,035.9,029.3,21.5,0001.5,0016.06,0005.76,0004.49
2023-09-08 19:31:00,SystemResetWarning,0834.9,5.01,000.00,027.7,026.3,000.0,035.9,029.4,20.7,0001.3,0016.90,0005.73,0004.49
2023-09-08 19:32:00,SystemResetWarning,0834.9,5.00,000.00,027.8,026.6,000.0,036.0,029.5,20.4,0001.0,0018.03,0005.77,0004.50
2023-09-08 19:33:00,SystemResetWarning,0834.9,4.99,000.00,027.8,026.5,000.0,036.0,029.5,20.4,0001.2,0018.15,0005.78,0004.51
2023-09-08 19:34:00,SystemResetWarning,0835.1,4.98,000.00,027.8,025.2,000.0,035.9,029.3,20.7,0001.2,0017.58,0005.84,0004.52
2023-09-08 19:35:00,SystemResetWarning,0835.3,5.01,000.00,027.7,024.3,000.0,035.8,029.1,20.3,0001.2,0017.40,0005.81,0004.52
2023-09-08 19:36:00,SystemResetWarning,0835.3,5.01,000.00,027.7,024.5,000.0,035.8,029.2,20.0,0001.1,0017.15,0005.82,0004.54
2023-09-08 19:37:00,SystemResetWarning,0835.0,5.00,000.00,027.7,024.8,000.0,035.8,029.1,20.6,0001.0,0018.36,0005.85,0004.55
2023-09-08 19:38:00,SystemResetWarning,0834.9,5.00,000.00,027.6,025.3,000.0,035.9,029.1,20.0,0001.0,0018.46,0005.86,0004.56
2023-09-08 19:39:00,SystemResetWarning,0834.9,5.00,000.00,027.7,025.7,000.0,035.9,029.2,20.0,0000.9,0018.65,0005.86,0004.58
2023-09-08 19:40:00,SystemResetWarning,0835.3,5.00,000.00,027.7,026.1,000.0,035.9,029.3,20.4,0000.9,0020.15,0005.88,0004.59
2023-09-08 19:41:00,SystemResetWarning,0835.2,5.00,000.00,027.7,026.4,000.0,035.9,029.4,20.7,0000.7,0021.05,0005.83,0004.61
2023-09-08 19:42:00,SystemResetWarning,0835.1,5.00,000.00,027.8,026.7,000.0,036.0,029.5,20.4,0000.7,0020.58,0005.79,0004.62
2023-09-08 19:43:00,SystemResetWarning,0835.1,5.00,000.00,027.9,026.8,000.0,036.0,029.6,20.3,0001.0,0019.02,0005.80,0004.63
2023-09-08 19:44:00,SystemResetWarning,0835.2,4.98,000.00,027.9,025.5,000.0,035.9,029.4,19.8,0001.0,0018.59,0005.75,0004.62
2023-09-08 19:45:00,SystemResetWarning,0835.0,5.01,000.00,027.8,024.4,000.0,035.9,029.2,19.5,0000.5,0018.85,0005.66,0004.61
2023-09-08 19:46:00,SystemResetWarning,0834.7,5.02,000.00,027.7,024.5,000.0,035.8,029.2,19.8,0000.4,0019.54,0005.67,0004.62
2023-09-08 19:47:00,SystemResetWarning,0834.7,4.99,000.00,027.7,024.9,000.0,035.9,029.2,19.7,0000.6,0020.06,0005.68,0004.61
2023-09-08 19:48:00,SystemResetWarning,0835.2,4.99,000.00,027.7,025.3,000.0,035.9,029.2,19.9,0000.6,0020.77,0005.69,0004.60
2023-09-08 19:49:00,SystemResetWarning,0835.1,5.00,000.00,027.7,025.7,000.0,035.9,029.3,20.0,0000.7,0020.45,0005.73,0004.61
2023-09-08 19:50:00,SystemResetWarning,0834.9,5.00,000.00,027.7,026.1,000.0,035.9,029.4,20.1,0000.6,0020.31,0005.73,0004.59
2023-09-08 19:51:00,SystemResetWarning,0834.9,5.01,000.00,027.8,026.4,000.0,036.0,029.5,20.3,0000.6,0019.41,0005.74,0004.56
2023-09-08 19:52:00,SystemResetWarning,0835.2,5.01,000.00,027.8,026.7,000.0,036.0,029.5,20.9,0001.1,0017.94,0005.77,0004.55
2023-09-08 19:53:00,SystemResetWarning,0835.0,5.00,000.00,027.9,026.3,000.0,036.0,029.5,21.6,0001.5,0018.26,0005.80,0004.54
2023-09-08 19:54:00,SystemResetWarning,0834.9,4.99,000.00,027.8,024.8,000.0,035.9,029.2,21.1,0001.5,0018.12,0005.79,0004.54
2023-09-08 19:55:00,SystemResetWarning,0834.6,5.02,000.00,027.8,024.3,000.0,035.8,029.2,21.0,0001.4,0018.71,0005.82,0004.55
2023-09-08 19:56:00,SystemResetWarning,0834.7,5.00,000.00,027.7,024.6,000.0,035.8,029.2,20.7,0001.5,0018.60,0005.85,0004.55
2023-09-08 19:57:00,SystemResetWarning,0834.6,5.00,000.00,027.7,025.0,000.0,035.9,029.2,21.1,0001.9,0018.86,0005.90,0004.56
2023-09-08 19:58:00,SystemResetWarning,0834.7,5.00,000.00,027.7,025.4,000.0,035.9,029.2,21.7,0001.9,0019.01,0005.96,0004.57
2023-09-08 19:59:00,SystemResetWarning,0834.6,5.00,000.00,027.7,025.8,000.0,035.9,029.3,21.5,0001.6,0018.41,0005.96,0004.58
